SL-8 R/B

Satellite information

Favourite Embed

Satellite Type and Status

ROCKET BODYIN ORBIT

Key statistics

Satellite SL-8 R/B at a glance.

Uptime

16215

Days in orbit

Revolutions

≈ 13.8

Per day

Orbit

LEO

Low Earth Orbit

Inclination

83.0

Latest

Satellite identification and parameters

Extended collection of information and parameters for SL-8 R/B.

Object identification

Identified? True

Debris? False

Object name: SL-8 R/B

International designator: 1981-053B

Object number (NORAD): 12508

Object ID (CCSDS): 12508

Country: COMMONWEALTH OF INDEPENDENT STATES (CIS)

Current information (Y/N): Y

RCS size: LARGE

Orbital parameters

Period: 104.604 minutes

Inclination: 82.9612 deg

SMA: 7354.056 km

Apoapsis: 1002.6 km

Periapsis: 949.243 km

RAAN: 41.502 deg

Eccentricy: 0.00362773

Argument of periapsis: 308.9378 deg

Mean anomaly: 50.8547 deg

Mean motion: 13.76614445 rev/day

Mean motion (dot): 0.00000098 rev/day2

B* drag term: 0.000084019799 1/REarth

Two-line elements (TLE)

Creation date: Oct. 26, 2025, 2:54 a.m.

Reference frame: TEME

Reference center: EARTH

Epoch: Oct. 25, 2025, 7:03 p.m. UTC

TLE line 0: 0 SL-8 R/B

TLE line 1: 1 12508U 81053B 25298.79426348 .00000098 00000-0 84020-4 0 9997

TLE line 2: 2 12508 82.9612 41.5020 0036277 308.9378 50.8547 13.76614445235168

Live tracking on map

Real-time ground track for satellite SL-8 R/B.

In-orbit conjunctions

A list of the most updated potential collisions computed for object SL-8 R/B.

Target Orbit TCA Probability of collision Miss distance Type
COSMOS 1275 DEB LEO 2025-06-25 05:35:51 0.0002400614 937.0 (m) DEBRIS
FENGYUN 1C DEB SSO 2024-11-11 17:23:30 0.0002514638 285.0 (m) DEBRIS
FENGYUN 1C DEB SSO 2024-08-14 23:23:06 0.0002430863 305.0 (m) DEBRIS

Associated space launch

Navigation satellite providing location information for the Tsiklon-B navigation system

SL-8 R/B was lifted into orbit during the mission ‘Kosmos-3M | Parus 27’, on board a Kosmos-3M space rocket.

The launch took place on June 4, 1981, 3:41 p.m. from 132/2.

For more information about the launch, click the button.

Launch to space Kosmos-3M | Parus 27
Kosmos-3M | Parus 27

Agency: N/A

Status: Launch Successful

Launch date: June 4, 1981, 3:41 p.m. UTC

Rocket: Kosmos-3M

Launch pad: 132/2

Location: Plesetsk Cosmodrome, Russian Federation

...

Latest news about this satellite

There are no fresh news available about this satellite. Check back as we update our databases every day.


Newsletter sign-up

Weekly statistics, charts and insights to help you stay on top of the space industry.